Vorticity
5 4 4 3 3 4 5 7 9 10 11 11 11 11 11 9 7 6 5 5 4 4 4 3 4 4 5 7 9 10 10 9 10 9 5 5 8 11 12 8 5 5 4 5 8 6 5 5 5 5 5 5 4 3 3 2 2 3 4 4 7 7 4 5 6 6 11 14 7 9 10 9 15 9 2 6 6 8 7 2 2 2 4 4 3 6 10 10
7 6 6 5 4 4 3 3 4 7 8 10 11 11 12 12 11 9 7 6 6 5 4 4 4 4 4 5 6 8 10 10 9 10 9 6 5 7 11 11 7 4 4 4 4 4 5 5 4 4 5 6 5 4 4 3 3 4 4 4 6 8 4 4 6 5 10 14 5 4 8 8 12 12 9 9 4 5 5 2 2 3 4 3 1 4 9 10
8 8 7 6 6 6 5 4 3 3 4 6 9 10 11 12 12 11 10 8 7 7 6 5 4 4 4 3 4 5 8 10 10 10 10 9 6 4 6 11 11 6 5 4 4 5 7 7 6 6 8 8 6 6 5 4 4 3 5 5 5 7 5 3 5 6 7 10 6 5 9 8 9 12 13 10 5 3 5 5 5 5 5 4 2 3 8 9
9 8 8 7 7 7 6 6 5 4 4 3 4 7 9 11 12 12 12 10 8 8 8 7 6 5 5 4 4 4 5 7 10 10 10 10 9 7 4 7 12 9 5 4 5 5 6 9 8 7 8 10 8 7 6 5 4 4 5 5 5 6 6 3 3 6 6 2 1 6 11 6 4 10 9 4 6 6 5 5 5 7 8 6 4 2 5 9
9 8 8 7 7 7 6 7 6 6 5 4 3 4 5 8 10 12 12 12 10 8 8 8 8 7 6 7 6 4 4 4 6 9 10 10 10 9 6 4 8 11 8 4 4 4 5 6 5 6 6 8 8 7 6 5 4 4 4 4 4 4 5 5 2 3 6 3 3 8 8 3 4 10 6 1 5 6 6 7 5 6 7 7 9 4 2 8
11 10 9 8 7 7 7 6 7 7 6 6 4 4 4 5 7 9 11 12 12 10 8 8 8 8 8 8 8 7 6 5 4 6 8 10 10 10 9 7 5 8 10 7 4 3 3 2 3 4 3 4 5 5 5 5 4 3 5 4 3 4 4 6 3 0 2 4 8 11 6 2 6 8 4 6 9 7 6 8 7 7 7 7 12 8 2 6
12 12 11 10 9 7 7 6 6 7 7 7 6 5 4 5 6 7 9 10 12 11 9 8 7 7 8 8 9 9 8 7 5 5 6 8 10 10 10 10 6 5 8 9 6 3 2 3 3 2 2 1 1 2 3 3 4 4 4 3 3 4 4 4 5 5 3 3 6 10 8 4 5 6 6 8 9 7 7 7 7 10 10 7 10 9 3 5
13 13 12 11 10 8 7 6 6 7 8 7 7 6 5 4 5 6 7 8 10 11 11 10 7 6 7 8 8 10 10 9 7 6 6 6 8 9 10 11 9 6 6 7 7 6 4 3 2 2 2 0 -0 2 2 2 4 3 2 3 5 6 6 5 5 7 8 9 7 4 4 3 3 6 8 7 6 7 8 7 7 9 11 8 8 8 4 5
14 14 13 12 11 10 8 6 6 7 9 8 8 7 6 5 5 5 6 7 7 9 11 11 10 7 6 6 6 7 10 10 9 9 7 6 6 8 10 11 11 9 8 6 6 7 6 4 3 3 2 0 1 1 1 3 2 1 2 5 7 6 6 6 6 7 7 9 9 3 1 3 5 7 7 6 6 8 8 8 7 7 11 11 8 7 6 7
14 15 15 14 13 11 10 9 7 7 9 11 10 8 7 7 6 5 5 6 7 7 9 10 11 10 7 7 5 6 8 8 9 10 10 8 6 6 7 10 11 11 11 8 6 5 4 5 4 4 4 2 2 3 3 4 2 4 5 6 7 6 5 6 7 9 6 6 10 8 7 5 3 5 7 7 7 7 8 8 7 6 11 13 8 6 9 9
13 14 15 15 15 14 13 12 9 7 8 11 14 12 10 8 8 7 5 5 6 6 7 8 9 10 10 9 6 6 8 7 8 10 10 10 9 7 6 7 9 11 11 10 8 6 5 5 4 4 4 4 5 6 5 4 5 8 8 7 7 6 6 5 6 7 4 6 8 7 9 6 2 4 7 7 5 5 7 7 7 6 9 14 10 8 10 9
12 13 14 14 15 16 17 17 15 11 7 8 12 14 14 11 9 8 7 6 6 6 7 6 7 8 9 10 8 7 7 6 7 8 9 11 10 10 9 7 7 9 10 9 8 10 9 7 6 5 3 3 5 6 4 5 7 9 9 9 8 7 5 5 7 5 2 7 11 9 10 7 3 5 6 6 4 4 5 5 7 6 8 13 12 10 11 8
11 11 11 12 12 13 15 18 20 19 14 8 8 11 15 16 13 10 7 7 7 6 7 7 6 7 7 8 9 8 7 6 6 7 8 10 10 10 12 10 8 8 9 9 9 11 11 10 10 7 6 4 2 4 3 4 7 9 10 11 10 7 4 4 7 5 2 6 10 8 7 7 4 5 7 6 4 5 4 4 6 6 7 11 14 13 12 8
11 10 10 10 9 9 10 12 15 19 19 16 10 8 12 15 15 14 9 8 8 7 7 7 7 7 7 7 7 8 8 7 6 6 7 9 9 9 11 12 10 8 7 9 12 13 11 11 11 11 11 7 4 5 2 1 4 7 9 11 12 8 4 5 6 5 5 6 6 6 7 7 6 6 7 7 5 6 5 3 5 6 7 10 13 13 12 9
12 11 10 9 8 7 7 7 8 11 15 17 15 10 10 12 14 16 14 9 8 8 8 8 7 8 8 7 7 7 8 8 7 6 6 8 10 10 9 10 11 11 8 7 10 13 13 11 11 12 13 11 9 8 4 2 2 4 7 9 12 11 5 4 6 6 6 6 5 7 8 6 6 5 4 6 6 8 6 2 3 6 7 9 9 12 14 10
13 13 12 11 9 7 6 6 5 6 8 12 15 13 11 12 12 14 16 14 9 8 9 8 8 8 9 9 8 7 6 6 7 7 6 6 8 10 10 9 10 11 11 9 7 8 11 12 11 10 11 12 14 11 6 5 2 2 4 6 11 12 6 3 5 6 5 7 7 7 8 5 5 5 5 7 4 7 7 2 2 4 7 10 7 9 13 11
13 13 13 13 12 9 7 7 6 7 7 8 11 13 13 12 12 12 14 16 13 9 9 9 9 8 8 8 8 8 7 6 5 6 7 6 6 7 10 10 9 9 9 11 10 7 7 9 10 11 10 10 13 13 10 8 4 2 1 5 9 10 8 3 3 6 5 7 9 7 7 5 5 6 8 9 4 5 6 3 4 3 6 10 7 7 11 12
14 14 14 13 13 12 10 10 9 9 9 9 10 13 14 12 13 12 11 14 15 12 10 8 8 8 7 9 9 8 7 7 6 4 5 6 6 5 7 9 10 10 8 9 11 11 8 6 7 9 11 10 11 13 13 10 7 3 1 3 6 8 9 5 2 6 5 6 8 5 5 5 4 4 7 10 8 5 4 4 6 4 3 8 8 7 8 12
14 15 16 14 13 14 14 14 13 12 11 10 10 12 15 14 12 12 12 12 13 14 13 10 9 9 8 8 9 8 8 7 5 5 4 4 6 5 5 6 7 10 10 9 10 12 12 10 8 8 10 12 11 12 13 12 8 5 2 1 5 5 7 7 5 6 6 5 7 6 5 5 3 2 4 8 8 3 2 3 6 5 3 5 7 8 7 9
16 17 18 16 15 15 14 15 16 16 15 14 12 11 14 17 13 11 13 13 11 13 14 12 9 8 8 8 8 9 9 8 6 5 5 4 4 5 6 6 5 6 7 8 9 10 10 11 13 12 9 9 10 11 12 12 10 8 5 1 3 4 4 6 6 7 7 6 8 9 7 6 4 2 2 6 8 3 2 4 3 6 5 3 5 6 7 7
16 18 20 18 17 17 16 17 18 18 19 18 15 11 12 17 16 13 12 13 12 11 12 14 13 10 8 8 9 9 8 8 8 6 5 5 4 4 5 8 8 6 5 6 7 9 9 9 12 13 9 7 8 10 10 11 11 10 8 3 2 3 4 5 5 5 6 5 7 8 7 6 4 3 3 6 9 3 2 3 1 6 8 4 4 5 8 10
16 17 19 17 17 18 19 19 19 20 20 19 19 16 14 16 17 14 11 12 14 14 11 12 15 14 10 7 8 10 9 8 7 7 7 6 6 5 4 5 7 7 7 6 5 6 9 9 9 9 10 10 7 7 8 10 11 10 10 7 3 2 3 4 4 3 4 3 4 4 6 7 5 6 5 5 9 5 3 2 -2 6 10 4 4 5 7 9
15 16 16 15 15 17 18 19 19 20 19 19 20 20 17 16 17 15 12 11 14 16 14 11 12 14 14 10 8 8 10 10 8 7 7 7 7 6 5 4 4 5 6 8 8 6 6 9 8 7 8 11 10 7 6 8 10 10 12 11 7 3 1 2 3 3 4 4 3 3 4 7 6 7 7 8 10 6 5 1 -3 4 9 6 5 4 4 5
14 14 14 13 14 15 16 18 19 18 17 18 19 20 19 18 19 16 13 12 13 15 15 15 12 13 16 15 13 9 8 11 10 7 6 7 7 6 4 4 4 5 4 5 9 9 7 7 8 7 7 9 11 11 8 7 9 10 12 14 13 7 1 1 2 2 5 7 5 3 5 7 7 7 8 9 10 11 10 3 -0 4 5 8 8 2 4 6
12 13 13 12 12 14 14 16 17 16 15 17 19 19 17 17 19 18 16 15 16 15 14 16 16 14 14 14 14 12 9 10 10 8 8 6 7 7 6 4 3 4 4 3 5 8 9 8 6 6 6 7 8 11 12 9 7 9 10 14 17 14 7 3 1 1 4 6 5 4 6 7 5 7 6 5 11 17 13 4 3 5 3 8 9 2 4 6
12 13 13 12 11 13 14 15 15 14 13 14 16 16 16 16 17 19 17 16 19 19 16 17 18 17 15 14 15 16 14 13 11 9 9 8 7 7 7 7 4 3 4 3 2 3 6 9 9 7 6 6 6 8 11 11 9 8 9 11 14 15 13 9 4 2 3 4 4 3 6 6 4 7 6 4 12 15 9 4 6 7 3 5 7 5 5 4
12 14 13 12 11 12 15 15 14 13 12 13 14 14 15 15 15 17 17 16 18 19 17 17 18 19 18 17 17 17 15 16 14 11 9 9 8 6 7 8 6 5 5 3 3 4 4 7 11 11 9 6 7 7 9 11 11 9 9 10 10 11 13 12 8 5 3 3 3 1 4 8 6 6 6 6 10 10 5 5 5 4 4 4 6 5 4 4
14 15 14 13 11 11 13 16 16 14 12 14 16 15 14 13 13 15 17 17 16 17 17 15 15 18 19 18 16 14 15 15 16 15 13 10 8 7 7 7 6 5 7 5 4 4 3 4 7 10 11 9 8 8 7 9 13 12 9 7 8 8 9 10 9 8 7 5 4 1 1 7 9 7 6 5 7 9 10 11 10 8 4 5 10 9 3 5
17 17 16 14 13 12 12 15 18 15 12 14 18 18 14 11 11 13 15 16 14 16 17 14 13 14 15 16 16 16 16 13 13 14 15 15 13 9 7 8 7 5 6 7 6 4 2 3 4 5 9 11 11 8 5 8 11 11 9 7 8 9 8 8 7 8 9 6 6 3 -1 4 9 8 9 7 7 14 16 14 13 10 4 5 11 10 6 7
19 18 18 16 15 14 14 15 18 17 12 13 18 20 15 9 8 11 16 17 12 11 14 13 12 12 13 15 16 16 14 12 12 13 14 15 16 15 12 10 8 6 7 8 8 7 4 4 4 4 5 8 11 10 7 9 8 7 11 10 8 10 10 9 7 6 7 7 8 5 1 2 4 4 8 9 7 12 14 11 11 12 10 8 6 3 6 14
20 20 19 17 16 16 16 16 17 18 14 13 18 20 14 7 7 13 17 18 12 8 11 13 10 10 12 13 13 11 10 12 13 13 14 15 16 18 18 16 13 10 11 11 11 11 9 7 5 5 4 4 8 10 10 10 8 6 10 11 9 9 9 9 10 6 4 7 8 4 2 2 2 3 6 7 5 3 2 4 9 13 14 8 -0 -1 3 14
20 20 19 18 19 18 19 18 18 18 16 14 17 19 13 6 9 15 16 16 14 10 10 11 9 9 12 12 9 8 9 12 13 12 12 14 16 17 17 18 17 14 14 15 15 14 13 11 8 7 6 5 6 8 10 11 10 8 7 9 10 8 7 8 10 6 4 10 11 4 3 3 4 6 4 4 7 3 -1 -1 -1 1 7 5 -3 -3 -2 7
18 19 19 20 20 20 21 21 18 17 16 14 14 17 14 10 12 15 16 17 14 11 11 10 7 7 11 10 8 8 11 12 11 12 11 11 13 16 17 17 16 15 16 15 14 13 14 14 13 13 11 9 8 7 9 10 10 9 8 8 9 9 7 7 8 7 6 11 10 4 4 3 5 9 5 2 5 4 2 1 -1 -5 -2 2 -3 -3 -3 -1
17 19 20 20 20 21 23 22 19 17 17 14 13 15 15 13 12 13 17 19 13 10 12 10 5 4 6 7 6 8 10 10 9 9 10 9 9 11 13 15 15 13 14 13 13 14 15 16 15 14 14 13 10 8 9 9 9 9 9 8 8 9 9 7 8 10 7 9 9 5 4 2 3 7 7 6 3 -0 1 3 6 3 -1 -1 -3 -2 -0 -3
17 19 20 21 22 21 22 23 19 17 18 14 12 14 15 14 12 13 18 18 13 11 10 9 7 5 6 6 6 6 4 5 7 7 7 7 7 7 8 9 11 10 11 12 13 13 15 18 16 14 14 13 12 10 9 10 12 9 8 10 8 7 10 10 10 10 9 9 9 6 2 -1 1 4 5 10 6 0 6 10 10 10 7 5 2 2 3 1
18 19 20 23 26 24 22 23 19 17 17 14 11 11 12 13 13 15 18 16 13 11 9 8 8 6 7 6 6 7 5 5 7 7 9 10 9 9 9 8 8 8 10 11 11 11 11 15 16 15 15 14 12 12 11 11 12 10 10 11 8 7 9 10 10 10 10 10 7 5 3 -1 1 3 2 8 8 3 7 11 8 7 7 8 9 8 4 1
19 20 18 21 28 26 21 21 21 19 17 14 11 10 11 13 13 13 14 14 13 10 8 9 9 7 7 6 6 9 10 10 11 10 12 14 13 13 13 13 12 12 13 13 13 12 9 10 13 13 15 17 14 13 14 13 11 13 13 10 9 10 9 9 9 8 10 11 7 4 4 1 1 2 1 3 5 5 5 4 2 1 1 4 9 14 10 4
22 20 16 19 26 28 22 19 21 23 20 14 11 12 10 10 12 13 11 12 13 12 9 8 8 8 9 8 9 11 11 10 11 10 10 11 12 12 12 14 15 14 15 15 15 14 12 12 13 12 12 16 16 14 14 14 13 14 12 10 12 12 9 9 9 7 8 11 8 5 5 4 0 -0 1 2 2 4 5 3 1 -1 -0 1 3 12 17 11
24 16 12 14 18 22 23 19 18 19 19 14 9 10 10 9 11 12 12 12 13 15 14 9 6 7 8 9 11 13 14 13 11 11 10 9 9 9 8 9 10 10 11 14 15 14 13 13 14 13 12 12 14 14 13 13 14 15 14 13 13 12 11 9 8 7 7 9 10 8 6 5 3 2 1 1 2 2 3 5 3 1 2 3 -1 1 12 17
23 12 8 10 11 16 21 20 15 13 16 15 10 10 10 10 11 11 11 12 10 11 14 13 12 11 10 10 11 11 13 13 11 10 6 4 3 5 6 6 6 6 6 9 13 14 13 13 13 13 13 13 13 12 12 12 13 15 16 15 13 11 11 10 9 8 5 5 9 10 7 5 6 6 3 1 3 2 2 4 4 3 3 5 3 -3 4 18
20 11 8 6 7 13 19 22 19 16 16 13 11 11 11 10 10 8 8 8 7 7 8 9 11 13 12 12 10 9 8 7 9 9 6 5 5 6 8 7 7 7 6 6 9 10 10 12 14 12 11 14 15 11 10 12 13 14 15 16 15 13 12 11 10 10 7 5 7 9 8 6 7 8 6 4 4 3 4 3 2 4 3 5 8 1 4 19
18 11 10 5 6 10 13 17 19 22 24 18 12 13 14 14 13 10 8 7 7 7 7 7 7 9 12 12 10 9 8 6 7 8 9 9 9 10 11 11 10 10 10 9 9 9 7 7 11 12 10 10 13 12 11 10 11 12 13 15 15 13 13 11 9 11 10 6 7 8 8 7 7 8 7 6 5 4 6 4 0 2 2 6 11 5 9 25
16 11 10 4 4 9 10 12 13 18 26 25 21 19 16 17 17 14 11 10 10 10 9 9 8 7 9 10 9 8 8 8 7 6 5 3 3 7 11 12 14 15 16 18 18 17 15 11 9 9 9 9 10 11 12 10 10 12 12 14 14 12 13 12 10 10 11 9 9 7 7 7 6 6 7 7 6 4 6 6 3 1 -1 4 10 4 6 17
17 13 12 6 5 7 9 11 10 10 16 21 25 28 25 24 22 18 12 9 9 11 10 9 10 11 11 11 10 9 8 9 8 6 4 -0 1 6 8 10 13 12 11 12 13 15 17 18 15 9 6 9 10 10 11 10 10 10 11 12 15 13 10 11 12 10 8 10 12 9 8 9 6 5 6 7 8 7 7 6 6 4 -1 1 7 4 1 -1
20 15 11 8 9 8 6 10 10 7 8 11 16 21 25 29 30 26 23 16 10 9 9 9 12 15 16 15 13 12 12 11 11 12 9 4 4 6 7 10 12 10 6 3 4 7 8 12 15 12 5 5 8 11 13 12 9 9 10 11 15 16 11 8 10 11 8 7 10 11 12 12 7 5 7 7 9 11 10 8 7 7 4 2 5 5 4 1
22 19 12 5 6 10 9 8 9 8 6 6 8 10 14 21 24 24 29 29 23 17 14 12 13 15 16 15 12 11 12 12 13 14 12 9 7 6 6 10 13 11 9 5 5 7 6 6 9 11 8 6 5 7 11 13 12 10 8 8 11 15 15 9 7 10 9 7 6 6 12 17 11 5 7 7 8 11 15 15 9 7 7 5 5 7 6 6
20 23 18 5 1 11 14 8 6 8 6 3 4 5 7 12 14 15 21 26 27 27 26 20 15 13 14 13 10 8 9 10 11 11 11 10 10 9 9 12 14 14 13 11 9 9 9 7 7 8 9 8 5 5 6 10 13 12 10 8 7 9 15 15 10 8 7 8 8 3 6 16 13 7 8 8 7 9 14 20 16 9 7 5 3 5 6 4
17 21 22 13 6 15 20 11 6 8 7 4 3 3 5 7 9 10 13 15 17 22 26 24 20 18 18 16 13 12 13 15 16 17 18 17 16 17 16 16 16 16 15 14 12 10 10 10 9 10 10 8 7 7 6 7 10 12 11 10 8 6 8 12 14 13 8 8 10 7 6 12 12 9 8 8 7 7 9 18 22 16 11 7 0 -1 3 4
12 15 20 18 12 17 21 13 6 6 7 6 5 4 4 5 6 7 9 11 12 14 16 18 19 20 20 19 18 16 15 16 16 17 18 18 18 19 19 18 19 19 18 16 14 11 11 11 13 16 16 13 9 8 9 9 9 9 9 10 10 9 8 8 9 12 12 9 9 8 7 11 12 10 10 8 7 8 7 13 22 22 15 11 4 -2 -2 3
7 8 15 19 16 17 18 13 9 7 6 6 6 5 4 4 4 5 5 7 8 9 10 11 12 13 13 14 15 13 12 12 11 11 12 12 12 14 14 14 16 19 18 18 16 14 13 12 13 17 21 20 15 11 10 10 10 9 8 7 8 10 11 11 7 6 10 12 11 8 6 8 10 9 10 10 8 8 8 9 17 24 20 15 12 4 -4 -2
5 4 8 15 18 17 18 18 13 8 5 4 4 5 5 3 3 4 6 6 6 6 7 8 8 8 8 8 9 9 9 9 7 8 8 8 8 10 9 8 10 12 12 14 16 15 14 12 11 13 17 18 18 16 13 12 11 11 9 7 7 8 10 12 11 7 5 7 10 12 9 8 10 9 7 8 7 8 10 10 13 18 19 17 17 15 6 0
4 4 5 8 11 13 17 22 19 11 7 6 5 7 9 8 4 4 6 8 7 6 6 6 6 5 5 6 6 6 6 6 6 6 6 5 6 7 6 6 7 7 6 7 10 12 12 11 9 11 14 14 15 16 14 13 13 12 12 10 8 7 7 8 11 11 8 5 4 7 9 8 10 11 10 10 8 6 8 11 14 14 12 13 14 16 17 13
Height
5853 5852 5851 5851 5850 5850 5850 5849 5849 5849 5848 5849 5849 5849 5849 5849 5849 5849 5849 5849 5850 5850 5850 5851 5852 5852 5853 5854 5854 5855 5856 5857 5858 5859 5860 5861 5862 5863 5864 5866 5867 5869 5871 5872 5874 5875 5877 5878 5880 5881 5883 5884 5884 5885 5886 5887 5888 5889 5889 5890 5890 5891 5892 5893 5894 5895 5895 5894 5894 5894 5894 5894 5895 5895 5896 5896 5897 5897 5896 5896 5896 5896 5897 5898 5898 5898 5899 5898
5851 5850 5849 5849 5848 5848 5847 5847 5847 5846 5846 5846 5846 5847 5847 5847 5847 5847 5847 5847 5847 5848 5848 5848 5849 5850 5851 5852 5853 5853 5854 5855 5856 5857 5858 5859 5860 5861 5862 5863 5865 5867 5869 5870 5872 5874 5875 5877 5878 5880 5881 5883 5884 5884 5886 5887 5888 5888 5889 5889 5891 5891 5892 5893 5894 5895 5895 5895 5895 5895 5895 5895 5895 5896 5896 5896 5896 5896 5896 5896 5896 5896 5897 5898 5898 5898 5900 5899
5848 5848 5847 5846 5846 5845 5845 5844 5844 5844 5844 5844 5844 5844 5844 5845 5845 5845 5845 5845 5845 5845 5846 5846 5847 5848 5849 5850 5851 5852 5852 5853 5854 5855 5856 5857 5859 5859 5860 5862 5864 5865 5867 5869 5871 5873 5874 5876 5877 5878 5880 5882 5883 5884 5885 5886 5887 5887 5888 5889 5891 5892 5892 5893 5894 5895 5895 5896 5895 5895 5895 5896 5896 5896 5896 5896 5896 5896 5896 5897 5897 5898 5898 5898 5899 5899 5900 5900
5845 5845 5844 5843 5843 5842 5842 5842 5841 5841 5841 5841 5841 5841 5842 5842 5842 5842 5843 5843 5843 5843 5843 5843 5844 5845 5846 5847 5848 5849 5850 5851 5852 5853 5854 5855 5857 5858 5858 5860 5862 5864 5865 5867 5869 5872 5874 5875 5876 5878 5880 5881 5882 5883 5884 5885 5886 5886 5887 5889 5891 5892 5892 5893 5894 5895 5896 5896 5896 5895 5895 5896 5896 5896 5896 5897 5897 5897 5897 5897 5897 5898 5899 5899 5899 5900 5901 5901
5842 5841 5841 5840 5839 5839 5838 5838 5838 5838 5838 5838 5838 5838 5839 5839 5839 5840 5840 5840 5841 5841 5841 5841 5842 5842 5843 5844 5846 5847 5848 5849 5850 5851 5852 5853 5855 5856 5857 5859 5861 5862 5864 5866 5868 5870 5872 5873 5875 5877 5879 5880 5881 5882 5883 5884 5885 5885 5886 5888 5890 5891 5892 5893 5894 5895 5896 5896 5895 5895 5895 5896 5896 5897 5897 5898 5898 5898 5898 5898 5898 5899 5900 5900 5900 5900 5901 5901
5838 5838 5837 5836 5836 5835 5835 5834 5834 5834 5834 5834 5835 5835 5836 5836 5836 5837 5837 5838 5838 5839 5838 5838 5839 5840 5841 5841 5843 5844 5846 5847 5848 5849 5850 5851 5853 5854 5855 5857 5859 5860 5862 5864 5866 5868 5870 5871 5873 5876 5877 5879 5879 5880 5881 5882 5883 5884 5885 5888 5889 5890 5891 5892 5893 5894 5895 5896 5895 5895 5895 5895 5896 5897 5897 5898 5898 5898 5898 5898 5898 5899 5900 5900 5901 5901 5902 5902
5834 5834 5833 5832 5832 5831 5831 5831 5830 5830 5830 5830 5831 5832 5832 5833 5833 5833 5834 5835 5835 5836 5836 5836 5837 5837 5838 5839 5840 5841 5843 5844 5846 5847 5848 5849 5851 5852 5854 5856 5857 5858 5860 5862 5864 5866 5868 5869 5871 5873 5876 5877 5877 5878 5880 5881 5882 5883 5885 5886 5888 5889 5891 5892 5893 5894 5895 5896 5896 5895 5895 5895 5896 5896 5897 5898 5898 5898 5898 5899 5899 5900 5901 5901 5901 5902 5903 5902
5830 5830 5829 5828 5828 5827 5827 5826 5826 5826 5826 5826 5827 5828 5828 5829 5829 5830 5830 5831 5832 5833 5834 5834 5835 5835 5836 5836 5837 5838 5840 5842 5843 5845 5846 5848 5849 5850 5852 5854 5855 5856 5858 5860 5862 5864 5866 5867 5869 5871 5874 5874 5874 5876 5878 5880 5881 5882 5884 5885 5887 5889 5890 5892 5893 5895 5896 5897 5897 5896 5895 5895 5895 5896 5897 5898 5898 5898 5899 5899 5899 5900 5901 5901 5902 5903 5903 5903
5826 5825 5825 5824 5823 5823 5822 5822 5822 5821 5821 5822 5822 5823 5824 5825 5826 5826 5827 5827 5829 5830 5830 5831 5832 5833 5833 5834 5834 5835 5837 5839 5841 5842 5844 5845 5847 5848 5850 5852 5853 5854 5856 5858 5860 5862 5863 5865 5866 5869 5871 5871 5872 5875 5876 5878 5879 5881 5883 5885 5887 5888 5890 5891 5893 5894 5896 5897 5897 5897 5896 5896 5896 5896 5897 5898 5898 5899 5899 5899 5900 5901 5901 5902 5903 5904 5904 5903
5822 5821 5820 5820 5819 5819 5818 5818 5817 5817 5817 5817 5818 5819 5820 5821 5821 5822 5823 5824 5825 5826 5827 5828 5829 5830 5831 5831 5832 5832 5834 5836 5838 5839 5841 5843 5844 5846 5847 5849 5851 5852 5854 5855 5857 5858 5860 5862 5864 5866 5868 5869 5871 5874 5875 5876 5878 5880 5883 5885 5886 5888 5889 5891 5892 5894 5895 5896 5897 5897 5897 5896 5896 5897 5897 5898 5898 5899 5900 5900 5900 5901 5902 5903 5903 5904 5904 5904
5819 5817 5816 5815 5815 5814 5814 5813 5813 5813 5812 5813 5814 5815 5816 5816 5816 5817 5819 5820 5821 5823 5824 5824 5826 5827 5829 5829 5829 5830 5831 5832 5835 5837 5838 5840 5842 5843 5845 5847 5849 5850 5852 5852 5853 5855 5858 5860 5862 5865 5866 5868 5870 5873 5873 5874 5877 5880 5882 5883 5885 5887 5888 5890 5891 5893 5894 5895 5896 5897 5897 5897 5897 5897 5898 5898 5899 5899 5900 5900 5901 5901 5902 5903 5904 5904 5904 5905
5815 5813 5812 5811 5810 5810 5809 5809 5808 5808 5808 5808 5809 5811 5812 5811 5811 5813 5815 5816 5817 5819 5820 5821 5822 5824 5825 5826 5827 5827 5828 5829 5832 5834 5836 5837 5839 5841 5843 5844 5846 5848 5849 5849 5850 5853 5856 5858 5861 5863 5864 5867 5870 5871 5871 5873 5876 5879 5881 5882 5884 5886 5887 5888 5890 5891 5893 5894 5895 5896 5897 5896 5896 5897 5897 5898 5899 5900 5900 5900 5901 5901 5902 5903 5904 5904 5905 5905
5811 5810 5808 5807 5806 5805 5804 5804 5804 5803 5804 5804 5805 5807 5807 5806 5807 5809 5810 5811 5813 5815 5816 5817 5819 5820 5822 5823 5824 5825 5825 5827 5829 5831 5833 5835 5836 5838 5840 5842 5843 5845 5846 5846 5849 5852 5854 5856 5858 5860 5863 5865 5867 5868 5870 5872 5875 5877 5879 5881 5882 5884 5886 5887 5888 5890 5891 5893 5894 5896 5896 5896 5896 5896 5897 5898 5899 5900 5900 5901 5901 5902 5902 5903 5903 5904 5905 5905
5807 5806 5804 5803 5802 5801 5800 5800 5799 5799 5799 5799 5800 5802 5802 5802 5803 5804 5806 5807 5809 5810 5811 5813 5815 5817 5818 5820 5821 5822 5823 5824 5826 5828 5830 5832 5834 5835 5837 5839 5840 5842 5843 5845 5848 5851 5852 5854 5855 5858 5861 5862 5864 5867 5869 5872 5874 5876 5878 5879 5881 5882 5884 5885 5887 5888 5890 5891 5893 5894 5895 5896 5896 5896 5897 5898 5899 5900 5901 5901 5902 5902 5902 5903 5903 5904 5905 5906
5803 5802 5800 5799 5798 5797 5796 5796 5795 5795 5794 5794 5795 5797 5797 5797 5798 5800 5801 5802 5804 5805 5807 5809 5811 5813 5815 5816 5818 5819 5820 5822 5823 5825 5828 5829 5831 5833 5834 5836 5837 5839 5841 5844 5847 5848 5850 5852 5854 5857 5858 5859 5862 5866 5867 5870 5872 5874 5876 5877 5879 5880 5882 5884 5885 5886 5887 5888 5891 5892 5894 5895 5895 5896 5896 5897 5899 5899 5900 5901 5902 5903 5903 5903 5903 5904 5905 5906
5800 5798 5796 5795 5794 5793 5792 5791 5791 5790 5790 5790 5790 5792 5792 5792 5794 5795 5797 5798 5799 5801 5802 5804 5807 5809 5811 5812 5814 5816 5817 5819 5820 5822 5825 5827 5828 5830 5832 5834 5835 5837 5839 5842 5844 5846 5848 5850 5852 5854 5855 5857 5861 5863 5865 5867 5870 5872 5874 5875 5877 5878 5880 5882 5883 5884 5885 5887 5889 5890 5891 5893 5894 5895 5896 5897 5898 5899 5900 5901 5902 5903 5903 5903 5903 5904 5905 5906
5796 5794 5792 5791 5790 5789 5787 5787 5786 5786 5786 5786 5786 5786 5787 5787 5788 5790 5792 5793 5795 5796 5798 5800 5802 5804 5806 5808 5811 5812 5814 5816 5817 5819 5822 5824 5826 5827 5829 5831 5832 5834 5837 5840 5842 5845 5847 5848 5850 5851 5853 5856 5858 5860 5862 5865 5867 5870 5872 5873 5875 5876 5878 5879 5880 5882 5884 5886 5887 5888 5889 5891 5893 5894 5895 5896 5897 5898 5899 5900 5901 5903 5904 5904 5904 5904 5905 5906
5792 5791 5789 5786 5785 5784 5783 5782 5781 5781 5781 5781 5780 5781 5782 5782 5783 5785 5787 5788 5790 5791 5793 5795 5797 5800 5802 5804 5806 5809 5811 5812 5814 5816 5818 5821 5823 5824 5826 5828 5830 5832 5835 5837 5840 5843 5844 5846 5848 5850 5852 5854 5856 5858 5860 5863 5865 5867 5869 5871 5873 5874 5876 5877 5879 5881 5883 5884 5886 5887 5888 5890 5891 5892 5894 5896 5897 5897 5898 5899 5901 5902 5904 5904 5904 5904 5904 5905
5789 5787 5784 5782 5780 5779 5778 5777 5776 5776 5776 5776 5775 5775 5776 5777 5779 5780 5782 5784 5785 5787 5788 5791 5793 5795 5797 5800 5802 5804 5807 5809 5811 5813 5815 5817 5819 5821 5823 5825 5827 5830 5832 5835 5838 5840 5842 5843 5845 5848 5850 5852 5854 5856 5858 5860 5861 5864 5866 5869 5871 5872 5874 5876 5878 5880 5882 5883 5885 5887 5888 5889 5890 5891 5892 5894 5896 5897 5897 5898 5900 5902 5903 5904 5905 5904 5904 5905
5784 5782 5780 5777 5775 5774 5774 5772 5771 5771 5771 5770 5770 5770 5771 5773 5774 5776 5777 5778 5780 5782 5783 5786 5788 5790 5793 5795 5798 5800 5803 5805 5808 5810 5812 5814 5816 5818 5820 5823 5825 5827 5830 5832 5835 5838 5839 5841 5844 5847 5848 5849 5851 5853 5855 5856 5858 5861 5864 5866 5868 5870 5872 5874 5876 5878 5880 5882 5884 5886 5887 5888 5889 5890 5891 5892 5894 5896 5897 5897 5898 5900 5902 5903 5904 5904 5904 5905
5780 5778 5776 5773 5771 5770 5769 5767 5766 5766 5766 5765 5764 5766 5767 5769 5770 5771 5772 5774 5775 5777 5779 5781 5783 5786 5789 5791 5794 5796 5799 5802 5804 5806 5808 5811 5813 5816 5817 5820 5822 5824 5827 5830 5832 5835 5837 5840 5843 5844 5844 5846 5848 5850 5852 5854 5856 5858 5861 5863 5866 5868 5869 5871 5874 5876 5878 5880 5882 5883 5885 5887 5888 5889 5890 5891 5893 5894 5895 5896 5896 5898 5900 5902 5904 5904 5905 5905
5776 5773 5771 5768 5766 5766 5764 5763 5762 5762 5762 5760 5760 5762 5764 5765 5765 5766 5768 5769 5771 5773 5775 5776 5779 5781 5784 5787 5790 5792 5795 5797 5800 5802 5804 5807 5810 5812 5814 5817 5819 5821 5824 5827 5830 5833 5836 5839 5840 5840 5841 5843 5846 5848 5850 5852 5854 5856 5859 5861 5864 5866 5867 5869 5872 5874 5876 5878 5879 5881 5884 5886 5887 5889 5890 5891 5892 5893 5894 5895 5895 5897 5898 5900 5902 5904 5905 5905
5772 5769 5767 5764 5763 5762 5761 5759 5758 5758 5757 5757 5757 5759 5759 5760 5761 5762 5763 5765 5766 5769 5770 5772 5774 5777 5780 5783 5786 5788 5790 5793 5796 5798 5801 5803 5806 5808 5811 5813 5816 5818 5821 5824 5827 5830 5834 5836 5837 5837 5839 5841 5844 5846 5848 5849 5852 5854 5857 5859 5862 5864 5865 5866 5869 5871 5874 5877 5878 5880 5883 5885 5887 5889 5890 5891 5892 5893 5893 5894 5894 5895 5897 5899 5901 5903 5904 5905
5768 5766 5763 5761 5759 5758 5757 5756 5755 5754 5754 5753 5754 5755 5755 5756 5757 5758 5759 5761 5762 5764 5766 5768 5770 5773 5776 5779 5782 5784 5786 5788 5792 5794 5797 5800 5802 5805 5807 5810 5813 5815 5818 5821 5824 5827 5831 5832 5833 5834 5837 5839 5841 5844 5845 5848 5850 5853 5855 5858 5860 5862 5863 5864 5866 5869 5873 5876 5877 5879 5881 5883 5885 5887 5888 5889 5891 5893 5894 5895 5894 5894 5895 5898 5901 5903 5904 5905
5765 5763 5760 5758 5756 5755 5754 5753 5752 5751 5750 5751 5751 5752 5752 5752 5753 5755 5756 5757 5759 5760 5762 5764 5766 5769 5772 5774 5777 5779 5781 5784 5787 5790 5793 5796 5798 5801 5804 5807 5810 5812 5815 5818 5821 5824 5826 5827 5829 5832 5834 5836 5839 5841 5843 5846 5848 5850 5854 5856 5858 5859 5861 5862 5863 5866 5870 5873 5875 5876 5878 5880 5882 5885 5886 5888 5890 5892 5894 5895 5895 5894 5895 5897 5899 5902 5903 5904
5763 5760 5758 5755 5753 5752 5751 5750 5749 5748 5748 5748 5748 5748 5748 5749 5750 5751 5753 5754 5755 5757 5759 5760 5763 5765 5767 5770 5773 5775 5778 5780 5783 5786 5789 5792 5795 5798 5801 5803 5806 5809 5812 5815 5818 5821 5822 5824 5827 5830 5832 5834 5836 5839 5841 5844 5846 5849 5852 5854 5855 5856 5858 5859 5860 5863 5867 5870 5871 5873 5875 5878 5881 5884 5886 5887 5889 5891 5892 5894 5895 5894 5894 5896 5898 5900 5902 5903
5760 5757 5755 5752 5750 5748 5747 5746 5746 5745 5745 5745 5745 5745 5746 5746 5747 5749 5750 5752 5753 5754 5756 5758 5760 5762 5764 5767 5769 5771 5774 5777 5779 5782 5785 5789 5792 5795 5797 5800 5803 5806 5809 5812 5815 5817 5818 5821 5824 5827 5829 5831 5834 5837 5839 5841 5844 5847 5850 5850 5851 5853 5855 5856 5856 5859 5864 5866 5869 5871 5874 5877 5881 5883 5885 5886 5888 5890 5892 5894 5894 5894 5894 5895 5897 5899 5901 5903
5757 5754 5752 5749 5747 5745 5744 5743 5742 5742 5742 5742 5742 5743 5743 5744 5745 5746 5748 5749 5751 5752 5753 5755 5757 5759 5761 5763 5765 5768 5770 5773 5776 5779 5782 5786 5789 5791 5794 5797 5800 5803 5806 5809 5811 5812 5814 5817 5820 5823 5826 5829 5832 5835 5837 5840 5843 5845 5846 5847 5848 5849 5851 5852 5853 5856 5859 5862 5866 5869 5872 5876 5880 5881 5883 5885 5888 5890 5893 5894 5895 5894 5893 5894 5896 5898 5900 5902
5754 5751 5748 5745 5743 5742 5741 5740 5739 5739 5740 5740 5740 5740 5741 5743 5744 5745 5746 5747 5749 5750 5751 5753 5755 5757 5758 5760 5762 5765 5767 5770 5773 5776 5780 5782 5785 5788 5790 5793 5797 5800 5803 5805 5807 5808 5810 5813 5816 5820 5823 5826 5829 5831 5833 5838 5841 5841 5842 5844 5846 5848 5849 5850 5850 5853 5855 5858 5863 5866 5869 5874 5878 5880 5882 5885 5888 5891 5894 5894 5894 5893 5892 5892 5894 5898 5900 5902
5750 5747 5744 5741 5739 5738 5737 5737 5736 5737 5737 5737 5738 5738 5740 5741 5742 5743 5744 5746 5747 5748 5749 5751 5753 5754 5756 5758 5760 5762 5764 5767 5771 5774 5776 5779 5782 5785 5787 5790 5794 5797 5800 5801 5803 5805 5806 5809 5813 5816 5820 5823 5826 5827 5831 5835 5837 5838 5840 5843 5845 5847 5849 5849 5849 5851 5852 5855 5860 5864 5866 5871 5876 5878 5881 5884 5887 5890 5891 5892 5893 5893 5893 5893 5894 5897 5899 5901
5746 5743 5740 5738 5736 5735 5734 5734 5734 5734 5735 5735 5736 5737 5738 5739 5740 5742 5743 5744 5745 5747 5748 5749 5751 5752 5754 5756 5758 5760 5763 5766 5769 5771 5774 5776 5779 5782 5784 5787 5791 5793 5795 5797 5799 5801 5802 5805 5809 5812 5816 5819 5822 5824 5827 5831 5833 5835 5837 5840 5842 5844 5846 5847 5848 5849 5849 5853 5860 5862 5863 5868 5872 5875 5878 5881 5883 5884 5886 5888 5890 5891 5892 5893 5894 5896 5898 5899
5743 5740 5737 5734 5733 5732 5731 5731 5731 5732 5732 5733 5734 5735 5736 5738 5739 5741 5742 5743 5744 5746 5747 5748 5750 5751 5752 5754 5756 5759 5762 5765 5767 5769 5771 5774 5776 5779 5781 5784 5787 5789 5791 5793 5795 5797 5798 5802 5805 5809 5812 5815 5817 5819 5823 5827 5829 5831 5834 5836 5839 5841 5843 5845 5845 5846 5848 5853 5859 5860 5861 5866 5868 5871 5875 5878 5879 5880 5881 5882 5883 5886 5888 5890 5891 5893 5895 5897
5740 5737 5734 5732 5730 5729 5728 5728 5729 5730 5731 5732 5733 5734 5736 5737 5738 5739 5741 5742 5744 5745 5747 5748 5749 5750 5752 5753 5756 5758 5761 5763 5765 5767 5770 5772 5774 5777 5779 5781 5784 5786 5788 5789 5791 5793 5795 5798 5801 5804 5807 5810 5813 5815 5819 5822 5825 5828 5830 5833 5836 5838 5840 5842 5843 5844 5846 5852 5856 5856 5859 5863 5865 5868 5873 5875 5877 5878 5880 5880 5880 5881 5883 5885 5887 5889 5891 5894
5737 5734 5732 5730 5728 5727 5727 5727 5727 5728 5729 5730 5732 5733 5735 5736 5737 5739 5740 5742 5744 5745 5746 5747 5748 5750 5752 5754 5756 5758 5760 5762 5764 5766 5768 5770 5772 5774 5776 5779 5781 5783 5784 5786 5788 5790 5792 5794 5797 5800 5803 5806 5809 5811 5814 5818 5821 5824 5827 5830 5833 5835 5838 5840 5842 5843 5846 5850 5853 5854 5856 5860 5861 5865 5870 5873 5875 5877 5879 5880 5881 5882 5882 5882 5883 5885 5887 5890
5735 5733 5730 5728 5727 5726 5726 5726 5726 5727 5728 5729 5731 5733 5734 5735 5736 5738 5740 5741 5743 5744 5745 5746 5748 5750 5751 5753 5756 5758 5759 5761 5763 5764 5766 5768 5770 5772 5774 5776 5778 5780 5782 5784 5785 5787 5789 5790 5792 5796 5799 5802 5805 5808 5811 5814 5817 5820 5824 5827 5830 5833 5837 5839 5840 5842 5844 5847 5850 5852 5854 5856 5858 5862 5866 5869 5872 5875 5877 5878 5880 5882 5883 5883 5883 5884 5886 5889
5734 5732 5730 5728 5726 5725 5725 5725 5726 5727 5728 5729 5731 5732 5733 5734 5736 5738 5739 5741 5742 5743 5744 5746 5747 5749 5750 5752 5754 5756 5758 5759 5761 5763 5765 5766 5768 5770 5772 5774 5776 5778 5780 5782 5783 5784 5786 5787 5789 5793 5795 5798 5801 5804 5807 5810 5813 5816 5820 5823 5826 5831 5834 5836 5838 5840 5841 5844 5846 5849 5850 5852 5855 5859 5862 5865 5868 5871 5874 5876 5877 5880 5882 5884 5885 5885 5886 5888
5734 5732 5729 5728 5726 5725 5725 5725 5726 5727 5728 5729 5730 5731 5732 5734 5736 5737 5739 5740 5742 5743 5744 5745 5747 5748 5749 5750 5752 5754 5756 5758 5759 5761 5763 5765 5767 5769 5770 5772 5774 5776 5778 5779 5781 5782 5783 5784 5786 5789 5791 5794 5798 5801 5803 5806 5809 5812 5815 5819 5823 5827 5830 5832 5834 5836 5838 5840 5842 5844 5846 5848 5851 5854 5857 5861 5864 5868 5871 5873 5875 5877 5879 5882 5884 5886 5886 5887
5734 5732 5730 5729 5727 5726 5725 5725 5726 5727 5728 5729 5730 5731 5732 5733 5735 5737 5738 5740 5741 5742 5743 5745 5746 5747 5748 5750 5751 5753 5755 5757 5758 5760 5761 5763 5765 5767 5769 5771 5773 5775 5776 5778 5779 5779 5780 5782 5784 5786 5788 5791 5794 5797 5799 5802 5805 5808 5811 5815 5820 5823 5825 5828 5830 5832 5834 5836 5837 5840 5843 5844 5846 5850 5855 5858 5861 5864 5867 5869 5872 5874 5876 5879 5882 5885 5886 5887
5735 5733 5732 5730 5729 5727 5726 5726 5726 5727 5728 5728 5729 5730 5731 5732 5734 5736 5737 5739 5740 5742 5743 5744 5745 5746 5748 5749 5751 5753 5754 5755 5757 5759 5760 5762 5764 5766 5768 5770 5772 5773 5775 5776 5777 5777 5778 5779 5781 5783 5785 5787 5790 5793 5796 5798 5801 5804 5808 5811 5815 5818 5820 5824 5826 5828 5831 5832 5834 5837 5840 5840 5841 5846 5851 5854 5856 5859 5863 5866 5869 5871 5873 5876 5879 5882 5885 5886
5736 5735 5734 5732 5731 5729 5728 5727 5727 5727 5728 5728 5729 5730 5731 5732 5733 5735 5736 5738 5739 5741 5742 5743 5744 5746 5747 5748 5750 5752 5753 5754 5756 5758 5760 5762 5763 5765 5767 5768 5770 5771 5773 5774 5775 5776 5776 5777 5778 5780 5782 5785 5787 5789 5792 5795 5798 5801 5804 5807 5810 5813 5816 5820 5822 5824 5827 5829 5831 5833 5835 5836 5837 5841 5846 5850 5853 5856 5859 5862 5865 5868 5870 5873 5876 5879 5882 5884
5737 5736 5735 5734 5733 5731 5729 5728 5727 5727 5727 5728 5729 5729 5730 5732 5733 5734 5735 5737 5738 5739 5740 5741 5743 5744 5746 5747 5749 5750 5752 5753 5755 5756 5758 5760 5762 5763 5765 5766 5768 5769 5771 5772 5773 5774 5775 5775 5777 5778 5780 5782 5784 5785 5788 5792 5795 5798 5800 5803 5806 5809 5812 5816 5818 5821 5824 5826 5827 5829 5831 5832 5834 5836 5841 5846 5849 5852 5855 5858 5861 5864 5867 5870 5873 5876 5879 5882
5738 5737 5737 5736 5734 5733 5731 5729 5728 5728 5727 5728 5728 5729 5730 5731 5732 5733 5734 5735 5736 5737 5738 5739 5741 5742 5744 5745 5747 5748 5749 5751 5752 5754 5756 5758 5759 5761 5762 5764 5765 5766 5768 5769 5771 5772 5773 5774 5775 5776 5778 5780 5781 5783 5785 5788 5792 5795 5797 5799 5802 5805 5808 5811 5814 5817 5820 5822 5823 5826 5828 5829 5831 5833 5835 5841 5846 5849 5852 5855 5858 5860 5864 5867 5870 5873 5876 5879
5739 5739 5738 5738 5736 5734 5732 5731 5730 5729 5728 5728 5728 5728 5728 5729 5730 5731 5732 5733 5735 5736 5736 5737 5738 5740 5742 5743 5745 5746 5747 5748 5750 5752 5754 5755 5757 5759 5760 5761 5763 5764 5765 5766 5767 5769 5770 5771 5773 5774 5775 5777 5779 5780 5782 5785 5788 5791 5793 5796 5798 5801 5804 5807 5810 5813 5816 5818 5820 5823 5825 5825 5826 5828 5830 5836 5842 5846 5849 5851 5854 5857 5860 5864 5867 5870 5873 5875
5741 5740 5739 5739 5738 5736 5734 5733 5731 5730 5729 5728 5728 5728 5728 5728 5729 5730 5730 5731 5733 5734 5735 5735 5736 5738 5739 5741 5743 5744 5745 5746 5748 5750 5751 5753 5755 5756 5758 5759 5760 5761 5762 5763 5764 5766 5767 5769 5770 5772 5773 5775 5776 5778 5780 5782 5784 5787 5789 5792 5795 5797 5800 5803 5806 5809 5812 5814 5816 5819 5821 5820 5821 5824 5826 5830 5837 5843 5846 5848 5850 5853 5856 5860 5864 5867 5869 5872
5742 5741 5740 5740 5739 5737 5736 5734 5733 5732 5731 5730 5729 5729 5728 5728 5729 5729 5729 5730 5731 5732 5734 5734 5735 5736 5737 5739 5740 5742 5743 5744 5746 5747 5749 5750 5752 5754 5755 5757 5758 5758 5759 5761 5762 5763 5765 5766 5768 5769 5771 5772 5774 5776 5778 5779 5781 5783 5785 5788 5791 5794 5796 5799 5802 5804 5807 5809 5812 5815 5816 5816 5819 5821 5822 5825 5831 5837 5843 5845 5847 5850 5853 5856 5859 5863 5866 5868
5744 5743 5742 5741 5739 5738 5737 5736 5734 5733 5732 5731 5730 5730 5729 5729 5729 5729 5729 5730 5730 5731 5732 5733 5733 5734 5735 5737 5738 5740 5741 5742 5743 5745 5746 5747 5748 5750 5752 5754 5755 5755 5757 5758 5759 5760 5761 5763 5765 5766 5768 5769 5771 5773 5775 5776 5778 5780 5782 5784 5787 5790 5792 5796 5798 5801 5803 5805 5808 5811 5811 5812 5817 5818 5818 5821 5825 5831 5838 5842 5843 5846 5849 5852 5855 5859 5862 5864
5745 5744 5743 5742 5740 5739 5737 5736 5735 5734 5734 5733 5732 5731 5731 5730 5730 5730 5730 5730 5730 5731 5731 5732 5732 5733 5734 5735 5736 5738 5739 5740 5741 5742 5743 5744 5745 5746 5748 5750 5751 5752 5753 5754 5755 5756 5757 5759 5761 5763 5764 5765 5767 5769 5771 5773 5775 5777 5779 5780 5783 5786 5789 5792 5795 5797 5800 5801 5802 5805 5806 5809 5812 5814 5815 5817 5820 5825 5831 5837 5840 5842 5845 5848 5851 5854 5857 5860
5746 5744 5743 5742 5741 5739 5738 5737 5736 5735 5734 5734 5733 5732 5732 5732 5731 5731 5731 5731 5731 5731 5731 5731 5731 5732 5733 5734 5735 5736 5738 5739 5739 5740 5741 5742 5743 5744 5745 5746 5748 5749 5750 5750 5751 5752 5753 5755 5758 5760 5761 5762 5764 5766 5768 5770 5772 5773 5775 5776 5779 5783 5786 5789 5791 5793 5795 5796 5797 5799 5803 5805 5807 5809 5811 5813 5816 5820 5825 5831 5835 5838 5840 5843 5846 5849 5852 5855
5746 5745 5744 5742 5741 5740 5738 5737 5736 5736 5735 5734 5734 5733 5733 5733 5733 5732 5732 5732 5732 5732 5732 5732 5732 5732 5733 5734 5734 5735 5736 5737 5738 5739 5739 5740 5741 5742 5743 5744 5745 5746 5747 5748 5748 5749 5750 5752 5754 5757 5758 5760 5761 5762 5764 5766 5768 5770 5771 5773 5776 5779 5782 5785 5787 5789 5791 5792 5793 5796 5799 5801 5803 5805 5807 5809 5812 5815 5820 5825 5830 5833 5836 5838 5841 5844 5847 5850
5747 5745 5744 5743 5741 5740 5739 5738 5737 5736 5736 5735 5734 5734 5733 5733 5733 5733 5733 5733 5733 5733 5733 5733 5733 5733 5733 5734 5734 5735 5735 5736 5737 5737 5738 5738 5738 5739 5740 5741 5743 5744 5745 5746 5746 5747 5748 5749 5751 5753 5755 5757 5758 5759 5761 5763 5764 5766 5768 5770 5772 5774 5777 5780 5782 5785 5787 5788 5789 5792 5795 5797 5799 5801 5803 5805 5808 5811 5815 5820 5824 5827 5830 5833 5836 5839 5842 5845
5748 5746 5745 5743 5742 5741 5740 5739 5738 5737 5736 5735 5735 5734 5734 5733 5733 5733 5733 5733 5733 5733 5733 5733 5733 5733 5733 5733 5734 5734 5735 5735 5736 5736 5737 5737 5737 5737 5738 5739 5740 5741 5743 5744 5745 5745 5746 5747 5748 5750 5752 5754 5755 5756 5758 5759 5760 5762 5764 5766 5768 5770 5772 5774 5777 5779 5781 5782 5785 5787 5790 5792 5795 5797 5799 5802 5804 5806 5810 5814 5818 5821 5825 5828 5830 5833 5836 5839
5748 5747 5745 5744 5742 5741 5740 5739 5738 5737 5736 5736 5735 5734 5734 5733 5733 5733 5733 5733 5733 5733 5733 5733 5733 5733 5733 5733 5734 5734 5734 5734 5734 5734 5735 5735 5735 5736 5736 5737 5738 5739 5740 5741 5742 5743 5743 5744 5745 5746 5748 5750 5752 5753 5754 5755 5756 5758 5760 5762 5765 5766 5767 5769 5772 5774 5776 5778 5780 5781 5784 5788 5791 5793 5795 5797 5800 5802 5805 5809 5813 5816 5819 5822 5824 5827 5830 5833